Weather History for Covington, KY

Change the Weather History Date:

Monday, December 23, 2013

  Actual Average Record
Temperature  
Mean Temperature 32 °F 32 °F  
Max Temperature 39 °F 40 °F 66 °F (1933)
Min Temperature 25 °F 25 °F -12 °F (1989)
Degree Days  
Heating Degree Days 33 33  
Month to date heating degree days 650 691  
Since 1 July heating degree days 1686 1651  
Cooling Degree Days 0 0  
Month to date cooling degree days 0 0  
Year to date cooling degree days 1150 1121  
Moisture  
Dew Point 25 °F    
Average Humidity 78    
Maximum Humidity 92    
Minimum Humidity 64    
Precipitation  
Precipitation 0.02 in 0.12 in 2.77 in (1921)
Month to date precipitation 4.64 2.50  
Year to date precipitation 49.21 41.65  
Snow  
Snow T in 0.20 in 2.70 in (1935)
Month to date snowfall 10.1 3.2  
Since 1 July snowfall 12.5 4.0  
Snow Depth 0.00 in    
Sea Level Pressure  
Sea Level Pressure 30.28 in    
Wind  
Wind Speed 11 mph (WNW)    
Max Wind Speed 18 mph    
Max Gust Speed 24 mph    
Visibility 10 miles    
Events Rain , Snow    
T = Trace of Precipitation, MM = Missing Value Source: NWS Daily Summary

Daily Weather History Graph

Daily Weather History Graph

Search for Another Location

Airport:

Trip Planner

Search our weather history database for the weather conditions in past years. The results will help you decide how hot, cold, wet, or windy it might be!

Date:

Astronomy

Dec. 23, 2013 Rise Set
Actual Time 7:55 AM EST 5:20 PM EST
Civil Twilight 7:25 AM EST 5:50 PM EST
Nautical Twilight 6:51 AM EST 6:24 PM EST
Astronomical Twilight 6:18 AM EST 6:57 PM EST
Moon 11:27 PM EST (12/23) 11:22 AM EST (12/23)
Length of Visible Light 10h 25m
Length of Day
9h 25m
Waning Gibbous, 68% of the Moon is Illuminated
Dec 23
Waning Gibbous
Dec 25
Last Quarter
Jan 1
New
Jan 7
First Quarter
Jan 15
Full

Hourly Weather History & Observations

Time (EST) Temp. Windchill Dew Point Humidity Pressure Visibility Wind Dir Wind Speed Gust Speed Precip Events Conditions
12:38 AM 37.4 °F 29.8 °F 35.6 °F 93% 30.07 in 10.0 mi WNW 11.5 mph - 0.00 in Rain Light Rain
12:52 AM 37.0 °F 29.8 °F 35.1 °F 93% 30.07 in 6.0 mi WNW 10.4 mph - 0.01 in Rain , Snow Light Rain
1:52 AM 35.1 °F 27.4 °F 34.0 °F 96% 30.10 in 9.0 mi West 10.4 mph - 0.01 in Rain , Snow Light Rain
2:52 AM 35.1 °F 27.9 °F 33.1 °F 92% 30.12 in 8.0 mi West 9.2 mph - 0.00 in Snow Light Snow
3:35 AM 33.8 °F 24.3 °F 32.0 °F 93% 30.12 in 6.0 mi WNW 13.8 mph - 0.00 in   Overcast
3:52 AM 34.0 °F 23.8 °F 30.9 °F 89% 30.14 in 9.0 mi WNW 16.1 mph - 0.00 in   Overcast
4:52 AM 34.0 °F 25.5 °F 30.0 °F 85% 30.15 in 9.0 mi WNW 11.5 mph - N/A   Overcast
5:52 AM 33.1 °F 22.6 °F 28.0 °F 82% 30.18 in 10.0 mi NW 16.1 mph 23.0 mph N/A   Overcast
6:52 AM 33.1 °F 24.4 °F 27.0 °F 78% 30.22 in 10.0 mi WNW 11.5 mph - N/A   Overcast
7:52 AM 32.0 °F 21.6 °F 25.0 °F 75% 30.26 in 10.0 mi WNW 15.0 mph - N/A   Mostly Cloudy
8:09 AM 32.0 °F 23.0 °F 24.8 °F 75% 30.26 in 10.0 mi WNW 11.5 mph - N/A   Mostly Cloudy
8:52 AM 32.0 °F 23.6 °F 25.0 °F 75% 30.30 in 10.0 mi West 10.4 mph - N/A   Overcast
9:11 AM 32.0 °F 22.5 °F 24.8 °F 75% 30.30 in 10.0 mi WNW 12.7 mph - N/A   Overcast
9:52 AM 32.0 °F 21.2 °F 24.1 °F 73% 30.33 in 10.0 mi WNW 16.1 mph 21.9 mph N/A   Overcast
10:52 AM 32.0 °F 22.5 °F 24.1 °F 73% 30.35 in 10.0 mi WNW 12.7 mph - N/A   Overcast
11:52 AM 32.0 °F 23.6 °F 23.0 °F 69% 30.36 in 10.0 mi West 10.4 mph - N/A   Overcast
12:52 PM 33.1 °F 23.9 °F 23.0 °F 66% 30.35 in 10.0 mi WNW 12.7 mph - N/A   Overcast
1:52 PM 33.1 °F 25.5 °F 23.0 °F 66% 30.35 in 10.0 mi West 9.2 mph - N/A   Overcast
2:52 PM 33.1 °F 24.9 °F 23.0 °F 66% 30.35 in 10.0 mi NW 10.4 mph - N/A   Overcast
3:52 PM 30.9 °F 20.7 °F 23.0 °F 72% 30.37 in 10.0 mi WNW 13.8 mph - N/A   Overcast
4:52 PM 30.0 °F 21.7 °F 21.9 °F 72% 30.38 in 10.0 mi NW 9.2 mph - N/A   Overcast
5:52 PM 28.9 °F 21.9 °F 21.0 °F 72% 30.38 in 10.0 mi West 6.9 mph - N/A   Mostly Cloudy
6:52 PM 28.0 °F 20.0 °F 19.9 °F 72% 30.39 in 10.0 mi West 8.1 mph - N/A   Overcast
7:52 PM 28.0 °F 18.6 °F 19.9 °F 72% 30.40 in 10.0 mi NW 10.4 mph - N/A   Overcast
8:52 PM 28.0 °F 18.1 °F 19.9 °F 72% 30.39 in 10.0 mi West 11.5 mph - N/A   Overcast
9:52 PM 27.0 °F 15.6 °F 18.0 °F 69% 30.40 in 10.0 mi West 13.8 mph - N/A   Overcast
10:09 PM 26.6 °F 16.2 °F 17.6 °F 69% 30.38 in 10.0 mi WNW 11.5 mph - N/A   Scattered Clouds
10:39 PM 26.6 °F 18.2 °F 17.6 °F 69% 30.38 in 10.0 mi WNW 8.1 mph - N/A   Mostly Cloudy
10:52 PM 26.1 °F 16.2 °F 19.0 °F 75% 30.40 in 10.0 mi NW 10.4 mph - N/A   Mostly Cloudy
11:52 PM 25.0 °F 16.3 °F 17.1 °F 72% 30.40 in 10.0 mi West 8.1 mph - N/A   Overcast